This is the latest recevied weather packets stored in our database for station/object KB1YYC. If no packets are shown the sender has not sent any weather packets the latest 10 day(s).
| Time | Temp. | Humidity | Pressure | Rain* | Wind** | Luminosity | Snow |
|---|---|---|---|---|---|---|---|
| 1777922413 | 21.11° C | 35% | 1005.5 hPa | 0 mm | - | 288 W/m² | - |
| 1777922110 | 20.56° C | 36% | 1005.5 hPa | 0 mm | - | 307 W/m² | - |
| 1777921806 | 20.56° C | 37% | 1005.6 hPa | 0 mm | - | 387 W/m² | - |
| 1777921502 | 20.56° C | 37% | 1005.6 hPa | 0 mm | - | 452 W/m² | - |
| 1777921198 | 20.56° C | 36% | 1005.5 hPa | 0 mm | - | 376 W/m² | - |
| 1777920895 | 20° C | 37% | 1005.6 hPa | 0 mm | - | 426 W/m² | - |
| 1777920592 | 19.44° C | 37% | 1005.7 hPa | 0 mm | - | 285 W/m² | - |
| 1777920287 | 18.33° C | 40% | 1005.8 hPa | 0 mm | - | 257 W/m² | - |
| 1777919983 | 18.33° C | 39% | 1006 hPa | 0 mm | - | 172 W/m² | - |
| 1777919681 | 18.33° C | 39% | 1006.1 hPa | 0 mm | - | 128 W/m² | - |
| 1777919379 | 18.89° C | 39% | 1006 hPa | 0 mm | - | 124 W/m² | - |
| 1777919075 | 18.89° C | 38% | 1006 hPa | 0 mm | - | 127 W/m² | - |
| 1777918773 | 18.89° C | 39% | 1005.8 hPa | 0 mm | - | 111 W/m² | - |
| 1777918469 | 18.89° C | 37% | 1005.7 hPa | 0 mm | - | 102 W/m² | - |
| 1777918168 | 18.89° C | 37% | 1005.7 hPa | 0 mm | - | 125 W/m² | - |
| 1777917867 | 18.89° C | 36% | 1005.7 hPa | 0 mm | - | 143 W/m² | - |
| 1777917564 | 19.44° C | 35% | 1005.7 hPa | 0 mm | - | 165 W/m² | - |
| 1777917261 | 19.44° C | 35% | 1005.9 hPa | 0 mm | - | 395 W/m² | - |
| 1777916959 | 18.89° C | 36% | 1005.8 hPa | 0 mm | - | 390 W/m² | - |
| 1777916656 | 18.89° C | 36% | 1006 hPa | 0 mm | - | 217 W/m² | - |
| 1777916353 | 18.89° C | 35% | 1005.9 hPa | 0 mm | - | 197 W/m² | - |
| 1777916049 | 19.44° C | 35% | 1005.9 hPa | 0 mm | - | 191 W/m² | - |
| 1777915747 | 19.44° C | 35% | 1005.9 hPa | 0 mm | - | 290 W/m² | - |
| 1777915443 | 19.44° C | 34% | 1005.8 hPa | 0 mm | - | 293 W/m² | - |
| 1777915140 | 20° C | 34% | 1005.9 hPa | 0 mm | - | 382 W/m² | - |
* Rain latest hour (hover to see other rain measurements)
** Current wind speed in m/s (hover to see current wind gust speed)